Tracking 19709 objects as of 19-Jun-2019
HD Live streaming from Space Station
objects crossing your sky now

SL-8 R/B

Track SL-8 R/B now!
10-day predictions


NORAD ID: 15006
Int'l Code: 1984-052J
Perigee: 1,477.9 km
Apogee: 1,689.4 km
Inclination: 74.0 °
Period: 117.7 minutes
Semi major axis: 7954 km
RCS: 6.198 m2 (large)
Launch date: May 28, 1984
Source: Commonwealth of Independent States (former USSR) (CIS)
Launch site: PLESETSK MISSILE AND SPACE COMPLEX (PKMTR)

Note: This is a ROCKET BODY
aabbcc
Your satellite tracking list
Your tracking list is empty




NASA's NSSDC Master Catalog

Two Line Element Set (TLE):
1 15006U 84052J   19169.12632208  .00000079  00000-0  84199-3 0  9991
2 15006  74.0110 211.2748 0132990 335.7828  81.6862 12.23692049566121
Source of the keplerian elements: AFSPC